Location: Alpha Ridge Park
(39.3209°N, 76.9128°W)
Time: 08:27:32
(UTC-04:00)

Transit 4A - Visible Passes

Search period start: 21 May 2019 00:00
Search period end: 31 May 2019 00:00
Orbit: 862 x 983 km, 66.8° (Epoch: 20 May)

Date Brightness Start Highest point End Pass type
(mag) Time Alt. Az. Time Alt. Az. Time Alt. Az.
21 May 9.1 00:44:16 10° NNW 00:50:10 36° NE 00:52:01 30° E visible
21 May 8.7 02:30:39 10° NW 02:35:29 38° W 02:35:29 38° W visible
21 May 10.4 23:09:30 10° NNE 23:11:43 12° NE 23:13:55 10° NE visible
22 May 8.5 00:53:26 10° NNW 00:59:42 51° NE 01:00:39 47° E visible
22 May 9.3 02:40:30 10° NW 02:44:07 24° W 02:44:07 24° W visible
22 May 10.2 23:17:48 10° N 23:21:36 16° NE 23:25:22 10° ENE visible
23 May 8.0 01:02:41 10° NNW 01:09:09 74° ENE 01:09:21 73° ENE visible
23 May 9.8 02:50:46 10° WNW 02:52:50 15° W 02:52:50 15° W visible
23 May 9.8 23:26:34 10° N 23:31:24 22° NE 23:34:37 15° E visible
24 May 7.9 01:12:04 10° NNW 01:18:06 74° W 01:18:06 74° W visible
24 May 9.4 23:35:32 10° N 23:41:05 29° NE 23:43:26 23° E visible
25 May 8.4 01:21:34 10° NW 01:26:55 49° W 01:26:55 49° W visible
25 May 8.8 23:44:38 10° NNW 23:50:41 41° NE 23:52:17 35° E visible
26 May 9.0 01:31:15 10° NW 01:35:47 32° W 01:35:47 32° W visible
26 May 10.2 22:09:27 10° N 22:12:22 13° NE 22:15:14 10° ENE visible
26 May 8.2 23:53:50 10° NNW 00:00:10 59° ENE 00:01:12 52° E visible
27 May 9.5 01:41:12 10° NW 01:44:42 22° W 01:44:42 22° W visible
27 May 10.0 22:18:00 10° N 22:22:13 18° NE 22:26:22 10° E visible
28 May 7.8 00:03:08 10° NNW 00:09:35 84° ENE 00:10:08 75° SE visible
28 May 10.0 01:51:45 10° WNW 01:53:38 14° W 01:53:38 14° W visible
28 May 9.6 22:26:52 10° N 22:31:58 24° NE 22:35:38 15° E visible
29 May 7.9 00:12:32 10° NW 00:18:54 67° WSW 00:19:07 67° SW visible
29 May 9.1 22:35:53 10° NNW 22:41:37 33° NE 22:44:39 22° E visible
30 May 8.5 00:22:06 10° NW 00:28:08 45° WSW 00:28:09 45° WSW visible
30 May 10.3 21:01:34 10° NNE 21:03:04 11° NNE 21:04:32 10° NE visible
30 May 8.6 22:45:01 10° NNW 22:51:11 46° NE 22:53:42 31° ESE visible
